Weather History for LTFE - October, 2011

Change the Weather History Date:

Saturday, October 29, 2011

  Actual Average (LGKO) Record (LGKO)
Temperature  
Mean Temperature 58 °F -  
Max Temperature 71 °F 68 °F - (-1)
Min Temperature 46 °F 58 °F - (-1)
Degree Days  
Heating Degree Days 6    
Growing Degree Days 8 (Base 50)    
Moisture  
Dew Point 37 °F    
Average Humidity 49    
Maximum Humidity 76    
Minimum Humidity 25    
Precipitation  
Precipitation 0.00 in - - ()
Sea Level Pressure  
Sea Level Pressure 30.06 in    
Wind  
Wind Speed 5 mph ()    
Max Wind Speed 12 mph    
Max Gust Speed -    
Visibility 6.2 miles    
Events      
Averages and records for this station are not official NWS values.
T = Trace of Precipitation, MM = Missing Value Source: Averaged Metar Reports

Daily Weather History Graph

Daily Weather History Graph

Search for Another Location

Airport or City:

Trip Planner

Search our weather history database for the weather conditions in past years. The results will help you decide how hot, cold, wet, or windy it might be!

Date:

Astronomy

Oct. 29, 2011 Rise Set
Actual Time 7:30 AM EEST 6:15 PM EEST
Civil Twilight 7:03 AM EEST 6:42 PM EEST
Nautical Twilight 6:32 AM EEST 7:12 PM EEST
Astronomical Twilight 6:02 AM EEST 7:43 PM EEST
Moon 10:27 AM EEST (10/29) 8:22 PM EEST (10/29)
Length of Visible Light 11h 38m
Length of Day
10h 45m
Waxing Crescent, 9% of the Moon is Illuminated
Oct 29
Waxing Crescent
Nov 2
First Quarter
Nov 10
Full
Nov 18
Last Quarter
Nov 25
New

Hourly Weather History & Observations

Time (EEST) Temp. Windchill Dew Point Humidity Pressure Visibility Wind Dir Wind Speed Gust Speed Precip Events Conditions
12:20 AM 48.2 °F - 39.2 °F 71% 30.09 in - SE 3.5 mph - N/A   Clear
12:50 AM 48.2 °F - 39.2 °F 71% 30.09 in - Variable 1.2 mph - N/A   Clear
1:20 AM 50.0 °F - 39.2 °F 66% 30.09 in - South 4.6 mph - N/A   Clear
1:50 AM 48.2 °F - 37.4 °F 66% 30.09 in - SE 5.8 mph - N/A   Clear
2:20 AM 46.4 °F 41.9 °F 39.2 °F 76% 30.09 in - ESE 9.2 mph - N/A   Clear
2:50 AM 46.4 °F 43.5 °F 39.2 °F 76% 30.09 in - ESE 5.8 mph - N/A   Clear
3:20 AM 46.4 °F 43.5 °F 37.4 °F 71% 30.06 in - SE 5.8 mph - N/A   Clear
3:50 AM 48.2 °F - 37.4 °F 66% 30.06 in - SE 4.6 mph - N/A   Clear
4:20 AM 50.0 °F - 37.4 °F 62% 30.06 in - SE 8.1 mph - N/A   Clear
4:50 AM 48.2 °F - 37.4 °F 66% 30.06 in - SE 5.8 mph - N/A   Clear
5:20 AM 50.0 °F - 37.4 °F 62% 30.06 in - ESE 10.4 mph - N/A   Clear
5:50 AM 48.2 °F - 37.4 °F 66% 30.06 in - Variable 2.3 mph - N/A   Clear
6:20 AM 46.4 °F - 37.4 °F 71% 30.06 in - Variable 2.3 mph - N/A   Clear
6:50 AM 46.4 °F 45.2 °F 37.4 °F 71% 30.06 in - SE 3.5 mph - N/A   Clear
7:20 AM 46.4 °F 43.5 °F 39.2 °F 76% 30.06 in - SSE 5.8 mph - N/A   Clear
7:50 AM 48.2 °F - 37.4 °F 66% 30.06 in - SSE 5.8 mph - N/A   Clear
8:20 AM 48.2 °F - 39.2 °F 71% 30.09 in - SE 4.6 mph - N/A   Clear
8:50 AM 51.8 °F - 39.2 °F 62% 30.09 in - SE 4.6 mph - N/A   Clear
9:20 AM 57.2 °F - 39.2 °F 51% 30.09 in - SE 4.6 mph - N/A   Clear
9:50 AM 60.8 °F - 39.2 °F 45% 30.09 in - SSE 4.6 mph - N/A   Clear
10:20 AM 62.6 °F - 35.6 °F 37% 30.09 in - SSW 3.5 mph - N/A   Clear
10:50 AM 66.2 °F - 35.6 °F 32% 30.09 in - Variable 3.5 mph - N/A   Clear
11:20 AM 68.0 °F - 33.8 °F 28% 30.06 in - NNE 6.9 mph - N/A   Clear
11:50 AM 68.0 °F - 33.8 °F 28% 30.06 in - North 6.9 mph - N/A   Clear
12:20 PM 69.8 °F - 33.8 °F 27% 30.06 in - North 6.9 mph - N/A   Clear
12:50 PM 71.6 °F - 33.8 °F 25% 30.06 in - NE 8.1 mph - N/A   Clear
1:20 PM 69.8 °F - 35.6 °F 28% 30.04 in 6.2 mi NW 6.9 mph - N/A   Partly Cloudy
1:50 PM 69.8 °F - 37.4 °F 31% 30.04 in 6.2 mi West 8.1 mph - N/A   Partly Cloudy
2:20 PM 71.6 °F - 41.0 °F 33% 30.04 in 6.2 mi West 11.5 mph - N/A   Partly Cloudy
2:50 PM 71.6 °F - 39.2 °F 31% 30.04 in 6.2 mi West 8.1 mph - N/A   Partly Cloudy
3:20 PM 71.6 °F - 35.6 °F 27% 30.04 in 6.2 mi West 5.8 mph - N/A   Partly Cloudy
3:50 PM 71.6 °F - 35.6 °F 27% 30.01 in 6.2 mi WNW 6.9 mph - N/A   Partly Cloudy
4:20 PM 71.6 °F - 33.8 °F 25% 30.01 in 6.2 mi NE 11.5 mph - N/A   Partly Cloudy
4:50 PM 71.6 °F - 35.6 °F 27% 30.01 in 6.2 mi NE 9.2 mph - N/A   Partly Cloudy
5:20 PM 69.8 °F - 35.6 °F 28% 30.01 in - North 6.9 mph - N/A   Clear
5:50 PM 68.0 °F - 35.6 °F 30% 30.01 in - NNE 10.4 mph - N/A   Clear
6:20 PM 64.4 °F - 37.4 °F 37% 30.04 in - North 8.1 mph - N/A   Clear
6:50 PM 62.6 °F - 37.4 °F 39% 30.04 in - North 6.9 mph - N/A   Clear
7:20 PM 62.6 °F - 37.4 °F 39% 30.04 in - North 10.4 mph - N/A   Clear
7:50 PM 62.6 °F - 37.4 °F 39% 30.04 in - NNE 9.2 mph - N/A   Clear
8:20 PM 60.8 °F - 37.4 °F 42% 30.04 in - Variable 2.3 mph - N/A   Clear
8:50 PM 60.8 °F - 39.2 °F 45% 30.04 in - Variable 2.3 mph - N/A   Clear
9:20 PM 59.0 °F - 37.4 °F 45% 30.04 in - SW 4.6 mph - N/A   Clear
9:50 PM 55.4 °F - 39.2 °F 54% 30.04 in - SE 4.6 mph - N/A   Clear
10:20 PM 55.4 °F - 39.2 °F 54% 30.04 in - ESE 4.6 mph - N/A   Clear
10:50 PM 57.2 °F - 37.4 °F 48% 30.04 in - SSW 5.8 mph - N/A   Clear
11:20 PM 55.4 °F - 41.0 °F 58% 30.04 in - SSE 4.6 mph - N/A   Clear
11:50 PM 62.6 °F - 35.6 °F 37% 30.04 in - Variable 4.6 mph - N/A   Clear